Location: Bijele Vode
(45.2833°N, 16.2000°E)
Time: 10:22:27
(UTC+00:00)

Nauka - Pass Details

Date: 28 September 2021
Orbit: 417 x 423 km, 51.6° (Epoch: 16 October)

Event Time Altitude Azimuth Distance (km) Brightness Sun altitude
Rises 19:00:26 0° 299° (WNW) 2,367 ? -24.8°
Reaches altitude 10° 19:02:33 10° 304° (WNW) 1,502 ? -25.1°
Enters shadow 19:04:26 29° 317° (NW) 792 ? -25.4°
